Regional Weather Roundup
Issued by NWS Cleveland, OH

Home | Current Version | Previous Version | Text Only | Print | Product List | Glossary Off
Versions: 1 2 3 4 5 6 7 8 9 10 11 12 13 14 15 16 17 18 19 20 21 22 23 24 25 26 27 28 29 30 31 32 33 34 35 36 37 38 39 40 41 42 43 44 45 46 47 48 49 50

000
ASUS41 KCLE 231710
RWRCLE
OHIO REGIONAL WEATHER ROUNDUP
NATIONAL WEATHER SERVICE WILMINGTON, OH
100 PM EDT TUE SEP 23 2014

NOTE: "FAIR" INDICATES FEW OR NO CLOUDS BELOW 12,000 FEET WITH NO
SIGNIFICANT WEATHER AND/OR OBSTRUCTIONS TO VISIBILITY.

OHZ001>008-015>018-024>027-034-035-043-044-231800-
   NORTHWEST OHIO

CITY           SKY/WX    TMP DP  RH WIND       PRES   REMARKS
DEFIANCE       SUNNY    N/A N/A N/A CALM      30.36F
FINDLAY        SUNNY     67  46  47 NE3       30.35F
TOLEDO EXPRESS SUNNY     65  46  50 S3        30.36F
TOLEDO METCALF SUNNY     66  45  46 MISG      30.37S
LIMA           SUNNY     66  46  48 VRB3      30.36S
$$

OHZ009>014-019>023-028>033-038-089-231800-
   NORTHEAST OHIO

CITY           SKY/WX    TMP DP  RH WIND       PRES   REMARKS
CLE-HOPKINS    SUNNY     64  46  52 VRB3      30.39S
CLE-LAKEFRONT  SUNNY     62  49  62 NW8       30.36S
CUY CO. ARPT   SUNNY     66  50  55 SE7       30.37S
LORAIN-ELYRIA  SUNNY     67  45  45 SW6       30.37S
ASHTABULA      SUNNY     64  47  53 SW5       30.37S
AKRON-CANTON   SUNNY     63  43  48 CALM      30.37F
WOOSTER        SUNNY     63  44  50 VRB5      30.38F
MANSFIELD      SUNNY     63  43  48 S5        30.37S
YOUNGSTOWN       N/A    N/A N/A N/A MISG        N/A
$$

OHZ042-051>053-060>062-070>072-077>081-231800-
  SOUTHWEST OHIO

CITY           SKY/WX    TMP DP  RH WIND       PRES   REMARKS
CINC-COVINGTON SUNNY     67  41  38 NE8       30.35S
CINC-LUNKEN    SUNNY     67  45  45 VRB3      30.36S
HAMILTON       SUNNY     68  46  45 NE7       30.37S
DAYTON         SUNNY     67  44  43 E5        30.37F
WRIGHT-PAT AFB SUNNY     66  44  45 VRB3      30.36F
DAYTON GENERAL SUNNY     66  46  48 VRB5      30.36S
WILMINGTON     SUNNY     66  41  40 CALM      30.35F
$$

OHZ036-037-039>041-045>050-054>059-063>069-073>076-082>088-231800-
  CENTRAL AND SOUTHEAST OHIO

CITY           SKY/WX    TMP DP  RH WIND       PRES   REMARKS
COLUMBUS       SUNNY     67  41  38 E7        30.37S
OSU AIRPORT    SUNNY     64  42  44 CALM      30.37S
BOLTON FIELD   SUNNY     63  45  51 CALM      30.38S
RICKENBACK AFB SUNNY     65  43  44 NE7       30.36F
NEWARK         SUNNY     65  42  43 VRB3      30.37S
MARION         SUNNY     64  43  46 VRB3      30.37S
LANCASTER      SUNNY     68  42  38 E7        30.37S
ZANESVILLE     SUNNY     63  41  44 E5        30.38R
NEW PHILLY     SUNNY     63  44  50 VRB3      30.39S
$$


USA.gov is the U.S. government's official web portal to all federal, state and local government web resources and services.